EW9092 Weather Reports


Display with metric or nautical units.
time (UTC)temp
F
wind
direction
speed
MPH
gust
MPH
rain 1hr
in
rain 24hr
in
rain mn
in
humidity
%
barometer
mb
20260506134852 58 50 0.0 0.0 0.00 0.00 0.00 60 1016.4
20260506134831 59 51 0.0 0.0 0.00 0.00 0.00 59 1016.4
20260506133850 60 50 0.0 0.0 0.00 0.00 0.00 58 1016.4
20260506133352 60 51 0.0 0.0 0.00 0.00 0.00 57 1016.4
20260506132850 60 50 0.0 0.0 0.00 0.00 0.00 58 1016.3
20260506132351 58 51 0.0 0.0 0.00 0.00 0.00 64 1016.3
20260506131850 56 51 0.0 0.0 0.00 0.00 0.00 68 1016.3
20260506131351 56 50 0.0 0.0 0.00 0.00 0.00 68 1016.2
20260506130850 55 50 0.0 0.0 0.00 0.00 0.00 68 1016.3
20260506130352 55 50 0.0 0.0 0.00 0.00 0.00 69 1016.2
20260506130117 54 51 0.0 0.0 0.00 0.00 0.00 71 1016.2
20260506125351 53 51 0.0 0.0 0.00 0.00 0.00 72 1016.1
20260506124851 52 50 0.0 0.0 0.00 0.00 0.00 74 1016.1
20260506124352 51 50 0.0 0.0 0.00 0.00 0.00 75 1016.1
20260506124116 51 50 0.0 0.0 0.00 0.00 0.00 75 1016.0
20260506123350 51 50 0.0 0.0 0.00 0.00 0.00 75 1016.0
20260506122852 52 50 0.0 0.0 0.00 0.00 0.00 75 1016.0
20260506122350 52 50 0.0 0.0 0.00 0.00 0.00 74 1015.9
20260506121850 52 50 0.0 0.0 0.00 0.00 0.00 73 1015.8
20260506121351 52 50 0.0 0.0 0.00 0.00 0.00 72 1015.8
20260506120846 53 50 0.0 0.0 0.00 0.00 0.00 72 1015.8
20260506120341 53 50 0.0 0.0 0.00 0.00 0.00 71 1015.7
20260506115832 53 50 0.0 0.0 0.00 0.00 0.00 71 1015.7
20260506115330 53 50 0.0 0.0 0.00 0.00 0.00 70 1015.5
20260506114832 53 50 0.0 0.0 0.00 0.00 0.00 69 1015.5
20260506114550 53 139 0.0 0.0 0.00 0.00 0.00 69 1015.4
20260506114045 53 139 0.0 0.0 0.00 0.01 0.00 67 1015.4
20260506113328 53 139 0.0 0.0 0.00 0.01 0.00 67 1015.3
20260506113044 54 138 0.0 0.0 0.00 0.01 0.00 67 1015.4
20260506112326 54 150 0.0 0.0 0.00 0.01 0.00 66 1015.3
20260506111823 54 141 0.0 0.0 0.00 0.01 0.00 66 1015.3
20260506111326 54 141 0.0 1.0 0.00 0.01 0.00 65 1015.3
20260506110823 55 141 0.0 2.0 0.00 0.02 0.00 65 1015.2
20260506110322 55 141 1.0 4.0 0.00 0.02 0.00 64 1015.2
20260506105821 55 148 2.0 4.0 0.00 0.03 0.00 64 1015.2
20260506105317 55 129 3.0 6.0 0.00 0.03 0.00 64 1015.1
20260506104818 55 135 2.0 6.0 0.00 0.03 0.00 65 1015.2
20260506104314 55 121 0.0 4.0 0.00 0.03 0.00 65 1015.1
20260506103814 55 207 0.0 0.0 0.00 0.04 0.00 65 1015.1
20260506103535 55 232 0.0 1.0 0.00 0.04 0.00 64 1015.1
20260506103030 55 219 1.0 2.0 0.00 0.04 0.00 63 1015.0
20260506102310 56 219 1.0 3.0 0.00 0.05 0.00 63 1014.9
20260506101809 56 236 0.0 3.0 0.00 0.05 0.00 62 1014.9
20260506101308 56 243 1.0 2.0 0.00 0.06 0.00 62 1014.9
20260506100808 56 243 1.0 3.0 0.00 0.06 0.00 61 1014.9
20260506100306 56 248 2.0 4.0 0.00 0.06 0.00 61 1014.9
20260506100033 56 229 1.0 4.0 0.00 0.06 0.00 62 1014.9
20260506095306 56 205 1.0 4.0 0.00 0.06 0.00 63 1014.8
20260506094805 56 225 1.0 3.0 0.00 0.06 0.00 64 1014.7
20260506094308 56 212 0.0 0.0 0.00 0.06 0.00 65 1014.7
20260506094027 56 131 0.0 0.0 0.00 0.06 0.00 65 1014.8
20260506093301 57 147 1.0 3.0 0.00 0.07 0.00 65 1014.8
20260506092758 57 131 1.0 3.0 0.00 0.08 0.00 65 1014.7
20260506092258 57 179 1.0 3.0 0.00 0.08 0.00 66 1014.7
20260506091800 57 149 1.0 4.0 0.00 0.09 0.00 66 1014.6
20260506091259 57 146 1.0 4.0 0.00 0.09 0.00 65 1014.5
20260506090758 57 144 1.0 3.0 0.00 0.10 0.00 65 1014.6
20260506090259 57 211 1.0 3.0 0.00 0.10 0.00 65 1014.6
20260506085800 58 191 1.0 3.0 0.00 0.11 0.00 65 1014.6
20260506085258 58 158 1.0 4.0 0.00 0.11 0.00 65 1014.6
20260506084756 58 146 1.0 4.0 0.00 0.12 0.00 64 1014.7
20260506084520 58 104 1.0 4.0 0.00 0.12 0.00 64 1014.7
20260506084018 58 196 0.0 2.0 0.00 0.13 0.00 64 1014.7
20260506083256 58 215 1.0 3.0 0.00 0.13 0.00 63 1014.6
20260506082754 59 162 1.0 3.0 0.00 0.13 0.00 62 1014.7
20260506082245 59 231 0.0 2.0 0.00 0.14 0.00 62 1014.7
20260506082008 59 217 0.0 2.0 0.00 0.14 0.00 61 1014.7
20260506081505 59 219 1.0 3.0 0.00 0.15 0.00 60 1014.7
20260506080738 60 229 1.0 3.0 0.00 0.15 0.00 60 1014.8
20260506080240 60 235 0.0 4.0 0.00 0.16 0.00 60 1014.8
20260506073232 60 224 1.0 3.0 0.00 0.20 0.00 58 1014.9
20260506072732 61 245 1.0 3.0 0.00 0.21 0.00 57 1014.9
20260506072453 61 255 1.0 3.0 0.00 0.21 0.00 57 1014.9
20260506071732 61 271 1.0 3.0 0.00 0.22 0.00 57 1014.8
20260506071228 61 260 1.0 4.0 0.00 0.22 0.00 57 1014.8
20260506070727 61 271 1.0 4.0 0.00 0.23 0.00 56 1014.8
20260506070224 61 253 1.0 3.0 0.00 0.23 0.00 56 1014.8
20260506062148 62 252 2.0 5.0 0.00 0.26 0.23 51 1014.5
20260506061648 62 256 3.0 6.0 0.00 0.27 0.23 50 1014.5
20260506061424 63 265 3.0 7.0 0.00 0.27 0.23 49 1014.5
20260506060646 63 227 3.0 7.0 0.00 0.28 0.23 50 1014.5
20260506060146 63 255 3.0 6.0 0.00 0.28 0.23 51 1014.5
20260506051134 64 267 3.0 8.0 0.00 0.30 0.23 50 1014.1
20260506050628 64 230 3.0 7.0 0.00 0.30 0.23 49 1014.1
20260506050128 64 263 2.0 7.0 0.00 0.30 0.23 49 1014.0
20260506045126 64 252 3.0 8.0 0.00 0.31 0.23 48 1013.9
20260506044628 65 251 4.0 8.0 0.00 0.31 0.23 48 1013.9
20260506044126 65 259 3.0 8.0 0.00 0.31 0.23 47 1013.8
20260506043626 65 281 4.0 8.0 0.00 0.31 0.23 47 1013.7
20260506043125 65 240 4.0 8.0 0.00 0.31 0.23 47 1013.8
20260506042626 65 266 4.0 8.0 0.00 0.31 0.23 46 1013.6
20260506042126 65 257 4.0 7.0 0.00 0.31 0.23 45 1013.5
20260506041625 65 274 4.0 9.0 0.00 0.31 0.23 44 1013.4
20260506041126 66 288 5.0 9.0 0.00 0.31 0.23 44 1013.3
20260506040626 66 231 4.0 12.0 0.00 0.31 0.23 42 1013.2
20260506040344 66 271 3.0 12.0 0.00 0.31 0.23 39 1013.1
20260506035614 66 274 3.0 8.0 0.00 0.31 0.23 37 1013.1
20260506035110 66 262 3.0 6.0 0.00 0.31 0.23 36 1013.1
20260506034838 66 258 3.0 8.0 0.00 0.31 0.23 36 1012.9
20260506034107 67 256 4.0 8.0 0.00 0.31 0.23 36 1012.8
20260506033827 67 262 3.0 8.0 0.00 0.31 0.23 36 1012.8
20260506033106 67 278 2.0 6.0 0.00 0.31 0.23 35 1012.7
20260506032605 67 260 2.0 4.0 0.00 0.31 0.23 35 1012.6
20260506032107 67 256 2.0 4.0 0.00 0.31 0.23 34 1012.5
20260506031606 67 246 3.0 8.0 0.00 0.32 0.23 34 1012.5
20260506031103 67 258 4.0 9.0 0.00 0.32 0.23 33 1012.5
20260506030604 67 271 5.0 9.0 0.00 0.32 0.23 32 1012.4
20260506030107 67 248 4.0 9.0 0.00 0.32 0.23 32 1012.3
20260506030043 68 283 5.0 9.0 0.00 0.33 0.23 32 1012.3
20260506025057 68 274 5.0 9.0 0.00 0.34 0.23 32 1012.2
20260506024557 68 273 6.0 13.0 0.00 0.35 0.23 32 1012.1
20260506024056 68 329 6.0 13.0 0.00 0.35 0.23 33 1012.1
20260506023556 68 282 5.0 12.0 0.00 0.36 0.23 34 1011.9
20260506023057 68 271 5.0 13.0 0.00 0.37 0.23 34 1011.8
20260506022556 68 248 5.0 13.0 0.00 0.37 0.23 34 1011.8
20260506022057 68 259 5.0 13.0 0.00 0.38 0.23 34 1011.6
20260506021557 69 251 5.0 13.0 0.00 0.38 0.23 34 1011.5
20260506021057 69 257 6.0 11.0 0.00 0.38 0.23 34 1011.4
20260506020556 69 257 7.0 13.0 0.00 0.38 0.23 33 1011.3
20260506020319 69 243 7.0 14.0 0.00 0.39 0.23 33 1011.2
20260506015559 70 284 6.0 14.0 0.00 0.39 0.23 33 1011.2
20260506015059 70 243 7.0 17.0 0.00 0.40 0.23 33 1011.1
20260506014558 71 278 8.0 17.0 0.00 0.41 0.23 32 1011.1
20260506014100 71 246 8.0 14.0 0.00 0.42 0.23 32 1011.0
20260506013637 72 271 8.0 14.0 0.00 0.44 0.23 31 1011.0
20260506012549 73 233 7.0 14.0 0.00 0.45 0.23 28 1010.9
20260506012047 73 276 7.0 13.0 0.00 0.45 0.23 26 1010.8
20260506011547 73 278 8.0 15.0 0.00 0.46 0.23 27 1010.8
20260506011047 73 268 8.0 16.0 0.00 0.46 0.23 26 1010.8
20260506010548 74 248 8.0 16.0 0.00 0.46 0.23 27 1010.7
20260506010047 74 234 7.0 14.0 0.00 0.47 0.23 27 1010.6
20260506005549 74 262 7.0 16.0 0.00 0.47 0.23 26 1010.7
20260506005043 74 295 7.0 16.0 0.00 0.48 0.23 27 1010.6
20260506004546 74 271 7.0 14.0 0.00 0.48 0.23 27 1010.6
20260506004046 74 274 7.0 14.0 0.00 0.49 0.23 27 1010.5
20260506003546 74 212 8.0 16.0 0.00 0.49 0.23 27 1010.5
20260506003047 74 269 9.0 16.0 0.00 0.50 0.23 28 1010.5
20260506002546 75 232 8.0 17.0 0.00 0.50 0.23 27 1010.5
20260506002046 75 244 7.0 17.0 0.00 0.50 0.23 28 1010.3
20260506001815 74 269 7.0 12.0 0.00 0.50 0.23 29 1010.2
20260506001039 74 226 6.0 14.0 0.00 0.50 0.23 28 1010.3
20260506000544 74 281 7.0 14.0 0.00 0.50 0.23 29 1010.3
20260506000047 74 286 7.0 13.0 0.00 0.50 0.23 28 1010.3
20260505235544 74 229 6.0 13.0 0.00 0.50 0.23 28 1010.2
20260505235042 74 229 8.0 16.0 0.00 0.50 0.23 29 1010.1
20260505234537 73 240 8.0 16.0 0.00 0.50 0.23 28 1010.2
20260505234036 74 191 7.0 18.0 0.00 0.50 0.23 27 1010.2
20260505233535 74 243 6.0 18.0 0.00 0.50 0.23 27 1010.0
20260505233034 75 255 6.0 15.0 0.00 0.50 0.23 26 1010.1
20260505232534 75 231 7.0 16.0 0.00 0.50 0.23 27 1010.1
20260505232257 75 236 8.0 16.0 0.00 0.50 0.23 27 1010.1
20260505231533 75 249 8.0 15.0 0.00 0.50 0.23 26 1010.2
20260505231020 75 264 7.0 16.0 0.00 0.50 0.23 26 1010.1
20260505230516 75 252 8.0 21.0 0.00 0.50 0.23 26 1010.2
20260505230010 75 271 10.0 21.0 0.00 0.50 0.23 27 1010.2
20260505225721 74 280 9.0 19.0 0.00 0.50 0.23 27 1010.2
20260505224954 75 260 8.0 16.0 0.00 0.50 0.23 27 1010.5
20260505224554 75 269 7.0 15.0 0.00 0.50 0.23 27 1010.3
20260505223941 75 269 10.0 23.0 0.00 0.50 0.23 26 1010.5
20260505222954 75 249 10.0 23.0 0.00 0.50 0.23 26 1010.6
20260505222453 75 252 9.0 19.0 0.00 0.50 0.23 27 1010.5
20260505221953 75 257 9.0 20.0 0.00 0.50 0.23 27 1010.5
20260505221453 75 248 9.0 20.0 0.00 0.50 0.23 28 1010.5
20260505220953 75 359 9.0 18.0 0.00 0.50 0.23 28 1010.6
20260505220453 75 264 8.0 18.0 0.00 0.50 0.23 28 1010.6
20260505215953 75 271 8.0 16.0 0.00 0.50 0.23 29 1010.6
20260505215453 76 244 8.0 19.0 0.00 0.50 0.23 29 1010.7
20260505214953 76 229 8.0 19.0 0.00 0.50 0.23 29 1010.8
20260505214457 75 264 9.0 19.0 0.00 0.50 0.23 31 1010.7
20260505213947 75 221 11.0 19.0 0.00 0.50 0.23 30 1010.9
20260505213441 75 229 10.0 19.0 0.00 0.50 0.23 32 1010.9
20260505213200 75 247 10.0 19.0 0.00 0.50 0.23 31 1010.9
20260505212425 74 252 11.0 19.0 0.00 0.50 0.23 33 1011.0
20260505211918 75 288 10.0 20.0 0.00 0.50 0.23 34 1011.0
20260505211412 74 227 10.0 19.0 0.00 0.50 0.23 35 1011.1
20260505210902 73 230 11.0 19.0 0.00 0.50 0.23 36 1011.0
20260505210355 73 264 11.0 21.0 0.00 0.50 0.23 35 1011.1
20260505210118 73 215 10.0 21.0 0.00 0.50 0.23 37 1011.2
20260505205349 74 214 10.0 17.0 0.00 0.50 0.23 37 1011.2
20260505204849 74 259 7.0 17.0 0.00 0.50 0.23 37 1011.2
20260505204349 73 243 5.0 11.0 0.00 0.50 0.23 39 1011.2
20260505204109 73 254 6.0 13.0 0.00 0.50 0.23 38 1011.2
20260505203350 73 216 6.0 13.0 0.00 0.50 0.23 38 1011.3
20260505202849 73 230 3.0 11.0 0.00 0.50 0.23 39 1011.3
20260505202349 72 220 1.0 5.0 0.00 0.50 0.23 44 1011.4
20260505201854 72 245 2.0 5.0 0.00 0.50 0.23 47 1011.4
20260505201350 72 243 2.0 6.0 0.00 0.50 0.23 47 1011.5
20260505200851 73 281 3.0 10.0 0.00 0.50 0.23 46 1011.4
20260505200349 72 210 3.0 10.0 0.00 0.50 0.23 48 1011.6
20260505195850 72 268 3.0 9.0 0.00 0.50 0.23 48 1011.6
20260505195350 72 273 4.0 9.0 0.00 0.50 0.23 48 1011.8
20260505195108 72 239 3.0 9.0 0.00 0.50 0.23 47 1011.8
20260505194338 72 309 2.0 6.0 0.00 0.50 0.23 47 1011.9
20260505193831 72 358 3.0 9.0 0.00 0.50 0.23 48 1011.8
20260505193333 73 356 3.0 9.0 0.00 0.50 0.23 46 1011.8
20260505192831 73 291 2.0 6.0 0.00 0.50 0.23 47 1011.9
20260505192553 73 278 3.0 9.0 0.00 0.50 0.23 48 1011.9
20260505192057 72 326 2.0 9.0 0.00 0.50 0.23 49 1011.9
20260505191329 73 221 1.0 4.0 0.00 0.50 0.23 49 1012.0
20260505191049 71 350 2.0 7.0 0.00 0.50 0.23 50 1012.2
20260505190325 71 287 3.0 8.0 0.00 0.50 0.23 52 1012.3
20260505185826 70 311 4.0 8.0 0.00 0.50 0.23 53 1012.4
20260505185326 70 300 3.0 7.0 0.00 0.50 0.23 53 1012.5
20260505185047 70 286 3.0 11.0 0.00 0.50 0.23 52 1012.6
20260505184324 71 219 2.0 11.0 0.00 0.50 0.23 51 1012.5
20260505183824 71 267 0.0 4.0 0.00 0.50 0.23 53 1012.6
20260505183323 71 268 2.0 6.0 0.00 0.50 0.23 55 1012.6
20260505182821 69 346 3.0 6.0 0.00 0.50 0.23 56 1012.7
20260505182319 69 329 2.0 6.0 0.00 0.50 0.23 56 1012.7
20260505181814 68 45 2.0 6.0 0.00 0.50 0.23 58 1012.8
20260505181309 68 1 1.0 5.0 0.00 0.50 0.23 59 1012.9
20260505180809 68 306 1.0 5.0 0.00 0.50 0.23 61 1013.1
20260505180308 67 332 2.0 7.0 0.00 0.50 0.23 60 1013.1
20260505175807 68 6 2.0 7.0 0.00 0.50 0.23 59 1012.9
20260505175307 68 29 1.0 3.0 0.00 0.50 0.23 58 1013.2
20260505174807 68 24 1.0 4.0 0.00 0.50 0.23 58 1013.2
20260505174309 68 269 1.0 5.0 0.00 0.50 0.23 58 1013.2
20260505174032 69 232 1.0 5.0 0.00 0.50 0.23 56 1013.2
20260505173305 69 60 1.0 4.0 0.00 0.50 0.23 57 1013.2
20260505173032 68 82 1.0 3.0 0.00 0.50 0.23 58 1013.3
20260505172521 68 118 1.0 3.0 0.00 0.50 0.23 58 1013.4
20260505171805 68 142 0.0 1.0 0.00 0.50 0.23 59 1013.3
20260505171302 68 126 0.0 1.0 0.00 0.50 0.23 60 1013.3
20260505170802 68 87 0.0 1.0 0.00 0.50 0.23 59 1013.3
20260505170300 67 250 0.0 0.0 0.00 0.50 0.23 62 1013.2
20260505165754 67 250 0.0 0.0 0.00 0.50 0.23 62 1013.2
20260505165515 66 250 0.0 2.0 0.00 0.50 0.23 65 1013.3
20260505165244 65 250 0.0 2.0 0.00 0.50 0.23 66 1013.2
20260505164250 65 250 0.0 2.0 0.00 0.50 0.23 66 1013.2
20260505163747 64 279 0.0 3.0 0.00 0.50 0.23 69 1013.3
20260505163250 64 279 1.0 3.0 0.00 0.50 0.23 71 1013.3
20260505163010 64 278 1.0 3.0 0.00 0.50 0.23 70 1013.3
20260505162249 64 250 1.0 3.0 0.00 0.50 0.23 70 1013.4
20260505161752 64 254 0.0 4.0 0.00 0.50 0.23 70 1013.3
20260505161740 63 260 1.0 4.0 0.00 0.50 0.23 71 1013.3
20260505160749 63 262 1.0 2.0 0.00 0.50 0.23 70 1013.3
20260505160246 63 250 1.0 3.0 0.00 0.50 0.23 70 1013.2
20260505153236 62 229 0.0 0.0 0.00 0.50 0.23 80 1013.1
20260505152733 62 134 0.0 0.0 0.00 0.50 0.23 80 1013.1
20260505152233 61 216 0.0 0.0 0.00 0.50 0.23 78 1013.1
20260505151733 61 216 0.0 0.0 0.00 0.50 0.23 81 1013.1
20260505151231 61 141 0.0 0.0 0.00 0.50 0.23 82 1013.1
20260505150730 61 142 0.0 0.0 0.00 0.50 0.23 83 1013.1
20260505150232 61 142 0.0 0.0 0.00 0.50 0.23 83 1012.9
20260505140225 59 88 1.0 4.0 0.00 0.50 0.23 88 1012.6